Wind_Speed
19 13 9 32 58 64 70 71 73 73 75 75 77 82 86 87 91 94 94 94 93 94 92 93 95 96 93 94 96 96 88 83 83 82 83 82 80 79 75 71 73 76 73 71 73
22 20 17 16 20 48 66 70 72 74 77 78 77 79 84 88 89 95 99 98 100 100 100 98 98 98 95 98 96 92 85 78 84 87 86 87 85 81 73 72 72 72 70 72 72
22 22 22 23 24 25 33 58 72 74 76 77 80 79 80 84 90 94 96 98 99 107 106 105 99 97 97 95 95 94 84 84 90 90 93 91 85 87 84 78 74 76 75 75 74
32 26 24 26 28 31 33 33 46 68 77 79 80 81 83 84 84 89 93 96 97 99 100 99 97 98 96 97 100 98 95 95 94 98 94 92 90 84 80 75 79 76 76 78 77
37 33 29 29 30 30 35 38 40 43 58 76 81 81 84 84 86 87 90 93 98 102 104 105 105 103 99 99 99 94 94 97 96 99 97 100 97 90 84 78 69 74 77 74 66
39 37 33 33 35 34 35 38 41 44 46 50 64 79 84 85 88 89 91 94 95 100 106 110 110 108 103 100 100 100 102 102 102 102 102 102 98 103 89 92 87 77 70 70 72
39 38 38 38 39 41 39 39 41 45 48 50 53 55 69 83 89 92 93 94 96 99 102 106 110 109 112 111 104 101 102 104 103 98 97 107 108 98 89 90 93 91 86 84 75
36 36 35 36 40 42 43 44 43 46 50 53 57 58 60 63 69 83 91 96 99 99 102 105 107 111 111 114 116 112 110 105 99 106 104 109 101 92 94 95 98 94 92 90 87
32 32 31 31 33 35 37 39 42 46 51 54 60 63 65 66 69 70 76 86 96 104 108 108 108 110 113 115 121 122 116 112 103 101 112 117 102 94 100 98 99 95 94 93 91
31 31 31 30 30 31 31 32 34 36 41 45 52 59 65 68 70 72 77 81 85 92 103 112 112 112 115 118 115 119 121 124 123 116 118 120 106 102 105 104 97 93 93 91 90
24 28 26 24 25 25 27 31 33 37 39 43 46 49 53 60 68 74 79 84 88 92 95 101 111 118 119 119 117 122 119 118 117 117 120 112 105 104 110 109 106 100 97 94 88
25 26 23 22 22 24 25 27 31 35 39 41 46 50 57 61 66 72 76 84 90 94 97 99 101 113 121 123 121 121 121 116 121 120 123 117 108 105 104 100 100 98 98 95 93
22 22 23 23 24 27 29 31 35 37 41 45 49 53 57 63 68 70 73 79 86 92 97 101 106 109 112 115 123 125 122 120 120 124 123 118 109 109 106 103 101 97 94 92 88
23 24 25 27 29 30 32 35 38 41 42 44 48 53 57 63 66 71 72 75 80 84 89 92 103 111 115 114 115 116 121 126 123 123 115 119 111 111 104 102 99 95 93 92 91
26 25 21 24 26 28 29 33 36 39 43 47 50 56 61 63 66 68 69 71 75 81 86 88 94 103 107 111 117 118 118 117 121 124 118 113 113 105 105 101 99 99 97 96 94
31 29 28 31 35 35 35 38 38 40 42 45 48 52 57 61 63 64 66 67 70 74 79 81 89 93 99 104 108 110 115 118 116 114 117 111 112 97 105 106 107 107 106 105 99
35 36 35 35 37 37 36 36 38 40 43 46 50 53 58 59 61 61 60 62 63 65 70 70 75 81 84 91 98 99 103 107 110 110 104 100 108 97 99 102 105 100 101 103 101
39 41 40 39 41 43 43 41 43 45 48 51 53 58 60 60 61 55 52 57 57 59 63 64 67 71 70 72 79 87 93 92 95 97 99 102 105 87 92 100 99 98 97 92 94
39 41 43 44 46 47 49 46 45 47 50 51 55 61 65 65 56 53 53 55 52 48 48 53 55 57 57 62 67 72 73 83 89 88 83 91 96 95 93 92 95 93 90 86 82
41 39 43 45 48 52 52 52 49 52 56 56 56 60 65 65 56 54 49 43 41 39 38 40 43 43 49 51 57 61 64 66 73 77 70 81 81 85 91 95 93 86 81 76 73
43 42 43 45 47 51 53 54 53 55 59 59 60 62 66 61 55 49 41 34 31 30 29 32 34 36 41 40 45 51 55 59 63 63 64 76 74 88 89 89 83 82 76 67 63
45 43 42 45 46 49 51 53 56 59 60 61 62 63 65 58 52 43 35 29 24 23 23 26 28 29 34 33 38 42 48 52 55 58 63 72 79 79 83 84 78 76 68 62 53
45 43 40 45 47 48 49 54 58 61 62 62 62 63 64 56 51 40 32 28 22 20 21 22 23 24 29 29 35 38 43 47 49 55 60 68 70 74 80 78 71 62 63 61 51
43 43 42 45 47 48 51 55 59 61 63 61 61 63 62 54 44 35 29 26 23 18 17 17 18 21 26 27 31 36 40 43 46 50 59 68 76 79 74 70 63 59 59 54 47
41 42 45 46 49 51 54 57 60 62 63 61 61 60 60 54 44 37 31 24 20 19 16 14 16 19 22 23 28 34 39 42 49 53 58 70 72 73 63 65 61 58 55 51 44
40 44 48 49 51 52 54 56 59 59 60 60 58 56 55 51 43 38 33 26 20 15 13 10 12 14 17 22 28 32 36 41 49 54 60 63 65 58 58 60 61 56 53 48 41
38 42 46 47 50 52 51 53 55 58 54 57 53 52 51 49 41 34 29 24 16 12 8 8 9 10 13 18 22 25 30 41 47 56 64 67 69 63 63 63 60 56 53 47 40
Wind_Direction
335 316 295 237 232 233 233 233 232 231 231 232 231 231 232 234 232 232 233 235 236 238 237 238 236 235 238 241 243 243 245 245 241 245 248 244 240 239 242 246 251 251 256 259 262
319 308 283 263 250 240 235 235 235 234 234 233 233 232 232 234 232 233 233 236 235 236 237 239 239 239 239 240 242 243 242 238 239 244 246 247 243 241 242 246 247 250 254 257 261
306 296 286 268 254 247 242 240 237 236 236 237 236 235 233 234 235 235 238 237 236 236 238 240 239 239 238 237 239 239 238 236 240 245 246 247 247 246 244 244 247 248 251 257 261
299 290 275 271 263 253 245 242 240 239 238 237 237 238 238 236 236 238 239 239 240 238 239 240 239 238 239 241 239 238 240 238 239 243 245 247 247 246 246 248 251 254 256 258 264
294 288 277 266 261 260 257 251 245 243 241 239 239 238 238 238 239 239 239 240 239 240 239 239 242 241 242 239 239 238 238 236 241 243 244 246 249 247 244 247 249 256 258 259 254
289 284 276 267 265 262 262 257 251 250 246 244 242 240 241 240 240 241 241 240 240 241 239 239 240 241 240 238 237 238 237 236 236 242 245 247 247 247 247 246 250 247 249 249 249
289 282 274 267 263 262 262 258 253 251 248 247 245 242 242 242 242 242 242 242 242 241 241 242 242 241 239 240 239 236 239 239 239 243 245 245 244 248 248 248 250 249 249 252 251
289 284 277 272 270 267 265 262 256 251 250 248 246 245 244 244 243 244 243 243 243 243 243 242 242 243 243 242 237 235 236 242 244 243 242 245 244 247 246 249 248 248 247 249 253
295 290 285 279 274 270 267 264 263 259 256 252 250 248 247 246 246 245 245 245 244 243 243 243 243 242 242 243 240 239 238 241 238 242 247 245 246 246 247 247 248 249 249 249 252
294 295 293 289 282 275 270 268 264 262 262 261 259 255 254 251 250 249 248 247 246 245 245 243 244 244 243 243 242 241 241 241 241 240 241 249 247 246 248 248 248 250 250 252 252
297 303 297 292 292 288 279 276 269 268 266 266 263 260 257 257 255 254 253 251 249 247 246 245 246 244 244 244 244 242 242 241 241 241 242 241 244 246 248 249 250 250 253 253 255
309 306 297 294 288 285 280 276 269 266 265 263 264 265 262 261 261 259 257 257 255 254 251 249 248 248 246 245 245 245 244 241 239 242 243 241 239 239 245 250 253 253 253 257 258
316 310 303 298 293 292 288 286 286 283 279 276 273 271 268 265 264 263 262 261 259 256 255 253 252 250 249 248 247 245 246 245 242 241 242 243 241 240 243 245 249 253 255 256 257
320 311 305 301 298 296 295 293 291 289 288 285 284 280 277 276 275 275 271 267 263 259 256 254 252 252 251 250 249 247 247 246 245 244 242 243 241 240 242 242 247 250 254 256 256
329 324 320 321 314 312 307 304 300 293 289 286 283 281 280 280 280 280 276 271 266 262 255 254 252 252 251 250 250 249 247 245 245 246 244 243 244 241 242 243 244 247 249 250 251
313 312 310 311 311 308 307 306 300 299 298 302 298 294 293 291 289 286 281 274 269 264 259 256 256 253 251 251 250 249 248 247 245 244 244 243 244 241 243 243 246 247 246 248 252
316 310 308 306 308 310 312 311 308 309 308 307 307 305 304 303 298 292 285 277 269 263 262 260 258 255 251 250 251 249 246 246 246 244 244 243 245 239 240 242 244 246 246 247 249
310 310 310 309 310 311 311 310 310 310 310 310 312 309 312 311 308 297 286 278 274 271 268 265 259 255 252 249 247 246 246 246 245 243 240 238 240 240 239 239 240 242 244 246 248
309 307 307 308 308 310 311 313 311 313 315 316 317 316 318 318 311 298 294 291 285 277 269 262 259 256 252 249 246 242 241 240 241 241 238 234 234 233 235 238 240 239 242 244 246
307 309 307 306 306 307 309 311 314 314 318 320 320 321 322 323 314 308 304 296 288 279 270 264 261 256 252 247 244 241 237 234 236 238 234 231 230 229 230 231 234 238 240 243 245
305 304 310 309 307 306 308 310 312 317 320 323 323 325 325 324 317 316 312 305 294 283 272 267 260 257 252 242 237 235 232 229 229 228 225 226 224 224 226 228 231 234 237 240 243
301 303 307 309 309 308 310 312 314 319 321 324 325 327 329 326 322 323 318 313 305 293 279 267 262 255 249 238 232 226 226 224 221 219 217 218 217 217 221 223 224 227 231 234 235
299 301 306 307 310 310 312 313 316 319 321 324 327 329 332 330 330 327 324 317 312 299 288 275 262 252 243 232 228 222 219 217 215 213 210 206 210 214 217 218 219 220 224 226 228
295 298 300 303 308 311 313 315 317 320 322 326 329 331 334 334 333 329 326 322 315 306 295 284 266 244 236 230 224 218 214 210 208 207 204 200 203 206 209 212 211 210 215 217 220
297 299 297 301 304 308 311 315 318 319 321 327 331 332 335 338 338 335 331 329 322 316 302 285 265 243 228 225 215 214 209 203 201 198 196 196 197 204 200 201 199 202 204 207 211
297 298 301 303 304 306 311 316 317 318 322 325 331 332 337 342 341 338 336 337 335 319 304 292 260 236 223 213 207 207 204 195 195 188 187 190 193 195 193 189 192 194 195 198 202
309 302 301 304 305 308 313 315 318 320 324 326 331 332 339 344 345 343 344 340 338 330 316 269 228 206 203 203 200 198 193 189 189 183 182 183 188 184 183 181 186 186 187 190 193
Height
10670 10669 10670 10671 10675 10680 10685 10690 10695 10700 10703 10707 10714 10721 10725 10732 10738 10743 10748 10752 10763 10769 10774 10779 10784 10790 10796 10804 10809 10816 10833 10844 10841 10840 10833 10836 10848 10856 10865 10869 10872 10876 10881 10884 10883
10669 10668 10667 10667 10668 10670 10672 10677 10683 10687 10689 10695 10701 10706 10712 10717 10722 10726 10733 10737 10744 10751 10754 10761 10767 10773 10781 10785 10795 10803 10818 10829 10819 10821 10814 10814 10835 10846 10854 10857 10862 10867 10872 10872 10873
10666 10664 10662 10661 10661 10661 10661 10664 10667 10671 10675 10681 10686 10693 10697 10701 10706 10712 10714 10716 10723 10731 10737 10743 10749 10755 10764 10770 10782 10789 10810 10805 10801 10804 10801 10802 10822 10830 10840 10850 10851 10853 10858 10860 10863
10658 10658 10657 10655 10654 10653 10653 10654 10654 10656 10661 10666 10671 10676 10681 10684 10691 10695 10701 10704 10711 10716 10721 10726 10731 10739 10747 10756 10757 10768 10786 10788 10789 10785 10786 10791 10796 10817 10830 10839 10837 10843 10846 10850 10853
10647 10646 10646 10646 10645 10645 10645 10647 10646 10646 10648 10650 10656 10660 10664 10667 10672 10676 10679 10683 10689 10695 10699 10705 10710 10716 10729 10735 10735 10757 10764 10765 10769 10769 10774 10774 10787 10797 10817 10823 10825 10831 10835 10838 10839
10637 10635 10634 10634 10633 10634 10635 10636 10637 10637 10638 10638 10642 10646 10649 10653 10656 10659 10662 10665 10671 10674 10679 10685 10690 10698 10708 10716 10724 10729 10737 10744 10752 10753 10759 10760 10771 10766 10810 10807 10813 10819 10822 10824 10828
10624 10622 10622 10621 10621 10621 10622 10623 10624 10625 10626 10627 10628 10630 10630 10635 10637 10639 10644 10648 10652 10655 10659 10663 10668 10675 10687 10693 10702 10710 10718 10723 10737 10741 10746 10738 10744 10772 10782 10789 10791 10801 10805 10812 10815
10613 10609 10608 10608 10607 10608 10609 10609 10610 10611 10612 10612 10613 10614 10616 10616 10618 10620 10623 10628 10632 10635 10637 10640 10646 10655 10663 10669 10677 10683 10691 10707 10734 10718 10727 10708 10738 10771 10761 10769 10771 10779 10787 10796 10801
10602 10601 10599 10597 10596 10596 10595 10596 10597 10597 10597 10599 10598 10599 10600 10601 10602 10604 10604 10604 10608 10611 10613 10615 10622 10629 10634 10640 10645 10660 10678 10689 10697 10695 10691 10683 10735 10751 10738 10749 10750 10762 10770 10779 10788
10595 10592 10590 10588 10587 10587 10586 10586 10586 10586 10584 10584 10583 10584 10583 10585 10585 10587 10586 10586 10585 10588 10590 10594 10599 10605 10607 10608 10628 10633 10640 10652 10668 10667 10663 10674 10720 10727 10721 10722 10740 10745 10753 10762 10771
10590 10587 10584 10581 10579 10578 10578 10577 10577 10576 10574 10573 10571 10570 10567 10566 10566 10566 10565 10564 10564 10566 10567 10571 10575 10575 10575 10583 10601 10602 10616 10631 10643 10644 10644 10668 10698 10702 10701 10707 10721 10733 10738 10746 10759
10585 10582 10579 10576 10573 10571 10569 10569 10567 10565 10563 10561 10559 10557 10552 10550 10546 10546 10545 10543 10543 10542 10545 10550 10553 10543 10549 10557 10567 10575 10587 10609 10612 10616 10621 10645 10677 10680 10683 10700 10705 10717 10726 10733 10741
10579 10576 10574 10571 10568 10565 10562 10559 10556 10554 10551 10548 10544 10541 10537 10533 10528 10526 10523 10520 10516 10516 10518 10524 10517 10519 10521 10528 10539 10548 10559 10574 10587 10587 10601 10622 10649 10664 10674 10688 10694 10702 10709 10717 10724
10575 10571 10567 10564 10560 10557 10554 10550 10546 10542 10538 10534 10529 10523 10518 10512 10510 10502 10499 10496 10488 10487 10487 10492 10482 10486 10491 10502 10507 10518 10530 10539 10550 10559 10595 10594 10623 10634 10656 10672 10678 10688 10693 10701 10703
10570 10566 10562 10557 10553 10549 10546 10541 10536 10530 10526 10521 10515 10508 10502 10496 10488 10478 10472 10466 10461 10454 10455 10457 10457 10456 10462 10468 10471 10485 10494 10507 10517 10537 10555 10579 10590 10631 10636 10656 10668 10671 10671 10676 10681
10563 10559 10555 10551 10545 10540 10536 10530 10524 10518 10512 10505 10496 10488 10481 10472 10464 10456 10445 10438 10431 10425 10422 10429 10423 10426 10429 10433 10441 10454 10464 10474 10490 10505 10524 10564 10563 10612 10617 10636 10637 10642 10651 10655 10670
10555 10550 10545 10541 10535 10529 10524 10518 10512 10504 10498 10490 10479 10471 10460 10453 10439 10428 10418 10408 10403 10403 10397 10399 10396 10394 10400 10405 10410 10423 10432 10443 10458 10480 10508 10540 10535 10587 10597 10605 10609 10623 10631 10641 10660
10547 10540 10535 10530 10524 10518 10512 10507 10498 10491 10481 10472 10463 10449 10441 10429 10415 10402 10395 10384 10382 10378 10371 10370 10367 10365 10375 10380 10386 10396 10405 10420 10434 10454 10480 10506 10508 10565 10571 10577 10589 10599 10610 10629 10644
10537 10531 10524 10519 10513 10506 10500 10494 10487 10478 10469 10459 10445 10431 10418 10407 10395 10382 10374 10362 10356 10353 10349 10344 10344 10346 10354 10356 10362 10370 10386 10396 10411 10424 10447 10478 10495 10522 10546 10557 10562 10580 10595 10615 10632
10528 10521 10514 10508 10502 10494 10488 10481 10475 10464 10453 10443 10432 10419 10404 10389 10373 10362 10352 10344 10336 10332 10329 10327 10327 10331 10332 10338 10344 10352 10361 10375 10389 10403 10432 10453 10479 10509 10518 10530 10543 10565 10585 10603 10622
10515 10511 10504 10496 10490 10483 10475 10467 10461 10453 10441 10430 10416 10405 10390 10373 10359 10347 10335 10329 10322 10318 10315 10314 10313 10315 10316 10323 10328 10336 10345 10357 10370 10389 10412 10431 10464 10471 10493 10507 10539 10556 10573 10593 10607
10503 10500 10494 10485 10479 10472 10464 10455 10447 10439 10428 10418 10404 10391 10376 10359 10346 10334 10323 10317 10312 10308 10305 10302 10301 10303 10304 10310 10315 10323 10332 10344 10357 10375 10393 10412 10430 10455 10477 10495 10521 10539 10564 10579 10596
10489 10487 10484 10475 10468 10461 10454 10446 10436 10427 10416 10406 10392 10379 10365 10349 10333 10322 10314 10307 10304 10300 10297 10294 10293 10293 10296 10300 10304 10312 10322 10331 10346 10360 10378 10395 10424 10443 10459 10486 10511 10535 10553 10568 10583
10479 10477 10472 10465 10458 10451 10444 10436 10426 10416 10405 10396 10383 10368 10355 10341 10328 10316 10307 10300 10295 10292 10289 10287 10286 10286 10288 10292 10297 10303 10311 10321 10334 10349 10363 10382 10402 10420 10447 10476 10504 10525 10542 10559 10572
10470 10466 10460 10457 10450 10444 10435 10427 10416 10405 10394 10386 10374 10361 10348 10333 10317 10308 10301 10294 10289 10285 10282 10280 10279 10280 10282 10287 10292 10297 10303 10313 10322 10336 10354 10369 10391 10414 10444 10467 10494 10515 10533 10550 10562
10461 10456 10451 10447 10439 10433 10426 10418 10406 10398 10387 10377 10367 10355 10342 10329 10316 10303 10295 10290 10284 10280 10277 10277 10276 10278 10280 10283 10286 10290 10300 10310 10320 10332 10350 10374 10398 10421 10444 10468 10487 10507 10527 10543 10556
10452 10446 10441 10437 10428 10422 10415 10407 10398 10385 10382 10369 10360 10349 10337 10325 10312 10302 10293 10287 10282 10278 10276 10274 10272 10274 10277 10281 10286 10293 10302 10310 10323 10335 10350 10370 10387 10413 10437 10462 10482 10502 10520 10537 10552